Nogales, AZ

11:12 AM MST on February 20, 2018 (GMT -0700)
Nogales International

Weather History for KOLS - December, 2013

Change the Weather History Date:

Sunday, December 29, 2013

  Actual Average (KFHU) Record (KFHU)
Temperature  
Mean Temperature 49 °F -  
Max Temperature 62 °F 58 °F 73 °F (1998)
Min Temperature 36 °F 36 °F 19 °F (1988)
Degree Days  
Heating Degree Days 16    
Moisture  
Dew Point 24 °F    
Average Humidity 44    
Maximum Humidity 67    
Minimum Humidity 15    
Precipitation  
Precipitation 0.00 in - - ()
Sea Level Pressure  
Sea Level Pressure 29.95 in    
Wind  
Wind Speed 3 mph (WNW)    
Max Wind Speed 9 mph    
Max Gust Speed -    
Visibility 10 miles    
Events      
Averages and records for this station are not official NWS values.
T = Trace of Precipitation, MM = Missing Value Source: NWS Daily Summary

Daily Weather History Graph

Daily Weather History Graph

Search for Another Location

Airport or City:

Trip Planner

Search our weather history database for the weather conditions in past years. The results will help you decide how hot, cold, wet, or windy it might be!

Date:

Astronomy

Dec. 29, 2013 Rise Set
Actual Time 7:21 AM MST 5:29 PM MST
Civil Twilight 6:55 AM MST 5:56 PM MST
Nautical Twilight 6:24 AM MST 6:26 PM MST
Astronomical Twilight 5:55 AM MST 6:56 PM MST
Moon 4:14 AM MST (12/29) 3:06 PM MST (12/29)
Length of Visible Light 11h 01m
Length of Day
10h 07m
Waning Crescent, 10% of the Moon is Illuminated
Dec 29
Waning Crescent
Jan 1
New
Jan 7
First Quarter
Jan 15
Full
Jan 23
Last Quarter

Hourly Weather History & Observations

Time (MST) Temp. Windchill Dew Point Humidity Pressure Visibility Wind Dir Wind Speed Gust Speed Precip Events Conditions
12:54 AM 44.1 °F 42.5 °F 27.0 °F 51% 29.90 in 10.0 mi South 3.5 mph - N/A   Partly Cloudy
1:54 AM 42.1 °F 38.4 °F 27.0 °F 55% 29.90 in 10.0 mi ENE 5.8 mph - N/A   Clear
2:54 AM 42.1 °F - 26.1 °F 53% 29.89 in 10.0 mi Calm Calm - N/A   Clear
3:54 AM 41.0 °F - 26.1 °F 55% 29.89 in 10.0 mi Calm Calm - N/A   Partly Cloudy
4:54 AM 37.0 °F 32.4 °F 25.0 °F 62% 29.90 in 10.0 mi ENE 5.8 mph - N/A   Clear
5:54 AM 36.0 °F - 25.0 °F 64% 29.92 in 10.0 mi Calm Calm - N/A   Clear
6:54 AM 37.0 °F - 25.0 °F 62% 29.94 in 10.0 mi Calm Calm - N/A   Clear
7:54 AM 36.0 °F - 26.1 °F 67% 29.96 in 10.0 mi Calm Calm - N/A   Clear
8:54 AM 41.0 °F - 27.0 °F 57% 29.96 in 10.0 mi Calm Calm - N/A   Clear
9:54 AM 48.9 °F - 28.0 °F 44% 29.96 in 10.0 mi Calm Calm - N/A   Clear
10:54 AM 54.0 °F - 25.0 °F 33% 29.95 in 10.0 mi West 3.5 mph - N/A   Clear
11:54 AM 60.1 °F - 18.0 °F 20% 29.92 in 10.0 mi Calm Calm - N/A   Clear
12:54 PM 60.1 °F - 15.1 °F 17% 29.90 in 10.0 mi WSW 5.8 mph - N/A   Clear
1:54 PM 61.0 °F - 14.0 °F 16% 29.88 in 10.0 mi WSW 8.1 mph - N/A   Clear
2:54 PM 62.1 °F - 12.9 °F 15% 29.88 in 10.0 mi West 5.8 mph - N/A   Clear
3:54 PM 61.0 °F - 19.0 °F 20% 29.90 in 10.0 mi NW 5.8 mph - N/A   Clear
4:54 PM 57.9 °F - 21.9 °F 25% 29.94 in 10.0 mi NNW 9.2 mph - N/A   Clear
5:54 PM 53.1 °F - 24.1 °F 32% 29.97 in 10.0 mi NNW 5.8 mph - N/A   Clear
6:54 PM 48.0 °F - 24.1 °F 39% 30.01 in 10.0 mi North 4.6 mph - N/A   Clear
7:54 PM 46.9 °F - 25.0 °F 42% 30.04 in 10.0 mi West 6.9 mph - N/A   Clear
8:54 PM 44.1 °F - 25.0 °F 47% 30.06 in 10.0 mi Calm Calm - N/A   Clear
9:54 PM 41.0 °F 39.0 °F 26.1 °F 55% 30.07 in 10.0 mi South 3.5 mph - N/A   Clear
10:54 PM 37.9 °F - 26.1 °F 62% 30.08 in 10.0 mi Calm Calm - N/A   Clear
11:54 PM 37.0 °F - 26.1 °F 65% 30.07 in 10.0 mi Calm Calm - N/A   Clear